Overview Statistics Trail Chart Weather Telemetry Raw packets
 

This is the latest recevied weather packets stored in our database for station/object IZ7EXI-13. If no packets are shown the sender has not sent any weather packets the latest 10 day(s).

<< 20 21 22 23 24 25 26 >>
Time Temp. Humidity Pressure Rain* Wind** Luminosity Snow
1788277025 32.78° C 50% 1018.4 hPa - - - -
1788276155 33.33° C 55% 1018.5 hPa - - - -
1788276125 33.33° C 55% 1018.5 hPa - - - -
1788275224 33.33° C 57% 1018.5 hPa - - - -
1788274324 32.78° C 58% 1018.6 hPa - - - -
1788273460 32.78° C 58% 1018.6 hPa - - - -
1788273423 32.78° C 58% 1018.6 hPa - - - -
1788272547 32.22° C 58% 1018.5 hPa - - - -
1788272523 32.22° C 58% 1018.5 hPa - - - -
1788271623 32.78° C 55% 1018.5 hPa - - - -
1788270723 33.33° C 55% 1018.4 hPa - - - -
1788269825 33.33° C 54% 1018.5 hPa - - - -
1788268953 33.89° C 54% 1018.5 hPa - - - -
1788268922 33.89° C 54% 1018.5 hPa - - - -
1788268049 33.89° C 56% 1018.8 hPa - - - -
1788268022 33.89° C 56% 1018.8 hPa - - - -
1788267158 33.89° C 56% 1018.8 hPa - - - -
1788267122 33.89° C 56% 1018.8 hPa - - - -
1788266221 33.89° C 55% 1018.9 hPa - - - -
1788265321 35° C 52% 1019 hPa - - - -
1788264445 34.44° C 52% 1019.1 hPa - - - -
1788264421 34.44° C 52% 1019.1 hPa - - - -
1788263557 35° C 50% 1019.1 hPa - - - -
1788263521 35° C 50% 1019.1 hPa - - - -
1788262646 35.56° C 47% 1019.1 hPa - - - -

* Rain since midnight (hover to see other rain measurements)
** Current wind speed in m/s (hover to see current wind gust speed)